THOR 5

Last updated on Wed Feb 04 2026 00:02:49 GMT+0000 (Coordinated Universal Time)

1 32487U 08006A 26034.34488338 -.00000018 00000+0 00000+0 0 9992 2 32487 0.0555 261.3648 0002623 53.8782 301.6686 1.00270272 65975
UTC large
Height (km)
Speed (km/s)
/
Latitude / Longitude
Inclination (degrees)
Orbital Period (minutes)
Azimuth
Elevation
Range (km)
Doppler Factor

Next 0 passes for location: London (51.5072 / 0.1276)

Sorry there are no passes over London.